Beaufort, NC

4:43 PM EDT on October 16, 2019 (GMT -0400)
Smith

Weather History for KMRH - May, 2019

Change the Weather History Date:

Sunday, May 5, 2019

  Actual Average Record
Temperature  
Mean Temperature 74 °F -  
Max Temperature 80 °F 75 °F 84 °F (1991)
Min Temperature 69 °F 55 °F 44 °F (1976)
Cooling Degree Days 9    
Growing Degree Days 24 (Base 50)    
Moisture  
Dew Point 69 °F    
Average Humidity 84    
Maximum Humidity 93    
Minimum Humidity 74    
Precipitation  
Precipitation 0.33 in - - ()
Sea Level Pressure  
Sea Level Pressure 29.77 in    
Wind  
Wind Speed 15 mph (SW)    
Max Wind Speed 26 mph    
Max Gust Speed 39 mph    
Visibility 9 miles    
Events Fog , Rain    
Averages and records for this station are not official NWS values.
T = Trace of Precipitation, MM = Missing Value Source: NWS Daily Summary

Daily Weather History Graph

Daily Weather History Graph

Search for Another Location

Airport or City:

Astronomy

May. 05, 2019 Rise Set
Actual Time 6:12 AM EDT 7:54 PM EDT
Civil Twilight 5:45 AM EDT 8:21 PM EDT
Nautical Twilight 5:12 AM EDT 8:54 PM EDT
Astronomical Twilight 4:37 AM EDT 9:29 PM EDT
Moon 6:53 AM EDT (5/5) 8:45 PM EDT (5/5)
Length of Visible Light 14h 36m
Length of Day
13h 42m
New Moon, 1% of the Moon is Illuminated
May 5
New Moon
May 11
First Quarter
May 18
Full
May 26
Last Quarter
Jun 3
New

Hourly Weather History & Observations

Time (EDT) Temp. Dew Point Humidity Pressure Visibility Wind Dir Wind Speed Gust Speed Precip Events Conditions
12:58 AM - - N/A% 29.84 in 10.0 mi SW 11.5 mph - N/A   Clear
1:33 AM - - N/A% 29.82 in 10.0 mi SSW 12.7 mph - N/A   Scattered Clouds
1:58 AM - - N/A% 29.82 in 10.0 mi SW 15.0 mph - N/A   Partly Cloudy
2:58 AM - - N/A% 29.82 in 10.0 mi SW 11.5 mph - N/A   Mostly Cloudy
3:28 AM 73.0 °F 70.0 °F 90% 29.81 in 10.0 mi SW 13.8 mph - N/A   Mostly Cloudy
3:37 AM 73.9 °F 70.0 °F 87% 29.81 in 10.0 mi SW 16.1 mph 23.0 mph N/A   Mostly Cloudy
3:58 AM 73.9 °F 70.0 °F 87% 29.80 in 10.0 mi SW 13.8 mph - N/A   Mostly Cloudy
4:16 AM - - N/A% 29.80 in 10.0 mi SW 15.0 mph - N/A   Scattered Clouds
4:58 AM - - N/A% 29.79 in 10.0 mi SSW 13.8 mph - N/A   Scattered Clouds
5:58 AM 73.0 °F 71.1 °F 93% 29.78 in 10.0 mi SSW 11.5 mph - N/A   Clear
6:14 AM 73.0 °F 71.1 °F 93% 29.79 in 9.0 mi SSW 10.4 mph - N/A   Partly Cloudy
6:58 AM 73.9 °F 71.1 °F 91% 29.80 in 9.0 mi SW 11.5 mph - N/A   Mostly Cloudy
7:58 AM 75.9 °F 72.0 °F 87% 29.79 in 10.0 mi SW 15.0 mph - N/A   Mostly Cloudy
8:21 AM - - N/A% 29.79 in 9.0 mi SW 8.1 mph - 0.00 in Rain Light Rain
8:31 AM - - N/A% 29.80 in 9.0 mi SW 9.2 mph - 0.00 in   Overcast
8:46 AM - - N/A% 29.80 in 1.0 mi West 26.5 mph 39.1 mph 0.12 in Rain Light Rain
8:53 AM 69.8 °F 64.4 °F 83% 29.81 in 0.5 mi WSW 20.7 mph 39.1 mph 0.22 in Fog , Rain Heavy Rain
8:58 AM 69.1 °F 66.0 °F 90% 29.81 in 1.5 mi West 23.0 mph 33.4 mph 0.25 in Rain Heavy Rain
9:05 AM 70.0 °F 66.0 °F 87% 29.81 in 3.0 mi West 18.4 mph 33.4 mph 0.02 in Rain Rain
9:09 AM 70.0 °F 66.0 °F 87% 29.81 in 2.5 mi WSW 12.7 mph 26.5 mph 0.06 in Rain Heavy Rain
9:22 AM 71.1 °F 66.9 °F 87% 29.79 in 6.0 mi WSW 6.9 mph - 0.08 in Rain Light Rain
9:58 AM 73.9 °F 69.1 °F 85% 29.78 in 10.0 mi SW 9.2 mph - 0.08 in   Clear
10:58 AM 77.0 °F 72.0 °F 84% 29.78 in 9.0 mi SW 12.7 mph - N/A   Partly Cloudy
11:12 AM 77.0 °F 72.0 °F 84% 29.78 in 9.0 mi SSW 16.1 mph - N/A   Mostly Cloudy
11:58 AM 78.1 °F 72.0 °F 81% 29.77 in 10.0 mi SSW 18.4 mph - N/A   Mostly Cloudy
12:15 PM 79.0 °F 71.1 °F 77% 29.76 in 10.0 mi SSW 16.1 mph 26.5 mph N/A   Partly Cloudy
12:58 PM 79.0 °F 70.0 °F 74% 29.75 in 10.0 mi SW 24.2 mph 33.4 mph N/A   Clear
1:58 PM 79.0 °F 70.0 °F 74% 29.73 in 10.0 mi SW 24.2 mph 28.8 mph N/A   Clear
2:58 PM 79.0 °F 70.0 °F 74% 29.71 in 10.0 mi SW 20.7 mph 31.1 mph N/A   Clear
3:58 PM 79.0 °F 70.0 °F 74% 29.70 in 10.0 mi SW 24.2 mph - N/A   Partly Cloudy
4:58 PM 77.0 °F 70.0 °F 79% 29.68 in 10.0 mi SSW 20.7 mph 29.9 mph N/A   Clear
5:58 PM 75.9 °F 70.0 °F 82% 29.69 in 10.0 mi SSW 23.0 mph 33.4 mph N/A   Clear
6:58 PM 75.0 °F 69.1 °F 82% 29.70 in 10.0 mi SW 20.7 mph 28.8 mph N/A   Partly Cloudy
7:58 PM 73.9 °F 68.0 °F 82% 29.70 in 10.0 mi SW 20.7 mph 27.6 mph N/A   Clear
8:58 PM 73.9 °F 69.1 °F 85% 29.70 in 10.0 mi SW 19.6 mph - N/A   Clear
9:58 PM 73.9 °F 69.1 °F 85% 29.74 in 10.0 mi SW 16.1 mph 25.3 mph N/A   Scattered Clouds
10:58 PM 73.0 °F 69.1 °F 87% 29.77 in 10.0 mi WSW 10.4 mph - N/A   Partly Cloudy